Location: Dos Palmas
(32.4468°N, 116.8732°W)
Time: 02:32:07
(UTC+00:00)

Delta 2 Rocket - Visible Passes

Search period start: 17 October 2021 00:00
Search period end: 27 October 2021 00:00
Orbit: 415 x 798 km, 35.6° (Epoch: 16 October)

Date Brightness Start Highest point End Pass type
(mag) Time Alt. Az. Time Alt. Az. Time Alt. Az.
17 Oct 4.6 01:57:12 10° SSW 01:59:34 18° SSE 02:01:09 13° ESE visible
18 Oct 3.7 02:08:41 10° SW 02:11:46 34° SSE 02:13:04 24° ESE visible
19 Oct 2.8 02:20:41 10° WSW 02:24:02 63° SSE 02:24:54 42° E visible
20 Oct 2.6 02:32:59 10° WSW 02:36:22 79° NNW 02:36:41 69° NE visible
21 Oct 3.3 02:45:25 10° W 02:48:24 52° NW 02:48:24 52° NW visible
22 Oct 4.4 02:57:53 10° W 03:00:05 33° NW 03:00:05 33° NW visible
23 Oct 3.0 01:27:44 10° W 01:31:20 68° NNW 01:34:41 10° ENE visible
23 Oct 5.2 03:10:19 10° WNW 03:11:45 22° WNW 03:11:45 22° WNW visible
24 Oct 3.3 01:40:10 10° W 01:43:43 52° N 01:46:37 13° ENE visible
24 Oct 5.8 03:22:40 10° WNW 03:23:24 15° WNW 03:23:24 15° WNW visible
25 Oct 3.4 01:52:36 10° WNW 01:56:07 47° N 01:58:16 19° ENE visible
25 Oct 6.3 03:34:58 10° WNW 03:35:03 10° WNW 03:35:03 10° WNW visible
26 Oct 3.2 02:05:00 10° WNW 02:08:32 51° N 02:09:57 29° ENE visible
